sat.trackr.live / text

‹ back to catalog

STARLINK-34241

NORAD 64229 · 2025-117AC

PAYLOAD ACTIVE UNKNOWN

§ Identity

Operator
Country
US
Launch date
2025-05-31
Launch site
AFWTR
Launch vehicle
Mass (kg)
RCS (m²)

Purposes: comms

External: N2YO · Heavens-Above · Gunter

§ Orbital elements

Epoch: 2026-09-20T14:08:16.729728Z

Period
93.85 min
Inclination
53.1587°
Eccentricity
0.0001464
Mean motion
15.34389399 rev/d
Perigee alt
461.7 km
Apogee alt
463.7 km
Semi-major
6,840.9 km
B*
4.9272e-4
RAAN
210.9794°
Arg perigee
62.8954°
Mean anomaly
297.2198°
Rev number
7,444

§ Raw data

STARLINK-342411 64229U 25117AC  26263.58908252  .00016302  00000+0  49272-3 0  99952 64229  53.1587 210.9794 0001464  62.8954 297.2198 15.34389399 74446

JSON: /api/v1/satellites/64229 · /tle

For live sub-satellite position, see the globe view (requires WebGL).

§ Visibility from observer

Set your observer location to see the next 7 days of passes ≥ 10°. The values pass through the URL so the page stays shareable.

No JS? Fill the form by hand. The geolocation button needs JavaScript.